�������C�����ː����j�^�v���󋵏��
Date,Time,Cs137(Bq/L),Cs134(Bq/L),�S��(Bq/L)
2019/03/16,00:00,0.31,ND,10
2019/03/16,00:10,0.28,ND,12
2019/03/16,00:20,0.31,ND,13
2019/03/16,00:30,0.33,ND,13
2019/03/16,00:40,0.35,ND,14
2019/03/16,00:50,0.38,ND,12
2019/03/16,01:00,0.39,ND,14
2019/03/16,01:10,0.39,ND,15
2019/03/16,01:20,0.43,ND,11
2019/03/16,01:30,0.45,ND,11
2019/03/16,01:40,0.45,ND,11
2019/03/16,01:50,0.47,ND,12
2019/03/16,02:00,0.49,ND,14
2019/03/16,02:10,0.46,ND,13
2019/03/16,02:20,0.47,ND,16
2019/03/16,02:30,0.48,ND,18
2019/03/16,02:40,0.50,ND,21
2019/03/16,02:50,0.48,ND,21
2019/03/16,03:00,0.52,ND,18
2019/03/16,03:10,0.54,ND,21
2019/03/16,03:20,0.55,ND,19
2019/03/16,03:30,0.48,ND,20
2019/03/16,03:40,0.49,ND,17
2019/03/16,03:50,0.49,ND,16
2019/03/16,04:00,0.49,ND,20
2019/03/16,04:10,0.47,ND,15
2019/03/16,04:20,0.46,ND,17
2019/03/16,04:30,0.52,ND,15
2019/03/16,04:40,0.50,ND,14
2019/03/16,04:50,0.51,ND,14
2019/03/16,05:00,0.51,ND,12
2019/03/16,05:10,0.52,ND,15
2019/03/16,05:20,0.51,ND,18
2019/03/16,05:30,0.51,ND,20
2019/03/16,05:40,0.51,ND,21
2019/03/16,05:50,0.51,ND,21
2019/03/16,06:00,0.50,ND,22
2019/03/16,06:10,0.48,ND,18
2019/03/16,06:20,0.45,ND,14
2019/03/16,06:30,0.46,ND,14
2019/03/16,06:40,0.48,ND,14
2019/03/16,06:50,0.52,ND,14
2019/03/16,07:00,0.53,ND,16
2019/03/16,07:10,0.55,ND,19
2019/03/16,07:20,0.55,ND,22
2019/03/16,07:30,0.57,ND,20
2019/03/16,07:40,0.59,ND,20
2019/03/16,07:50,0.61,ND,22
2019/03/16,08:00,0.64,ND,17
2019/03/16,08:10,0.61,ND,15
2019/03/16,08:20,0.64,ND,14
2019/03/16,08:30,0.64,ND,15
2019/03/16,08:40,0.70,ND,18
2019/03/16,08:50,0.70,ND,16
2019/03/16,09:00,0.71,ND,19
2019/03/16,09:10,0.72,ND,17
2019/03/16,09:20,0.67,ND,18
2019/03/16,09:30,0.67,ND,16
2019/03/16,09:40,0.67,ND,12
2019/03/16,09:50,0.67,ND,12
2019/03/16,10:00,0.69,ND,14
2019/03/16,10:10,0.67,ND,17
2019/03/16,10:20,0.58,ND,16
2019/03/16,10:30,0.54,ND,19
2019/03/16,10:40,0.56,ND,22
2019/03/16,10:50,0.50,ND,21
2019/03/16,11:00,0.49,ND,18
2019/03/16,11:10,0.48,ND,16
2019/03/16,11:20,0.49,ND,15
2019/03/16,11:30,0.55,ND,15
2019/03/16,11:40,0.58,ND,16
2019/03/16,11:50,0.60,ND,17
2019/03/16,12:00,0.59,ND,18
2019/03/16,12:10,0.60,ND,16
2019/03/16,12:20,0.60,ND,20
2019/03/16,12:30,0.58,ND,18
2019/03/16,12:40,0.56,ND,17
2019/03/16,12:50,0.56,ND,18
2019/03/16,13:00,0.53,ND,16
2019/03/16,13:10,0.54,ND,18
2019/03/16,13:20,0.53,ND,14
2019/03/16,13:30,0.55,ND,16
2019/03/16,13:40,0.50,ND,12
2019/03/16,13:50,0.51,ND,13
2019/03/16,14:00,0.52,ND,16
2019/03/16,14:10,0.52,ND,18
2019/03/16,14:20,0.54,ND,18
2019/03/16,14:30,0.56,ND,17
2019/03/16,14:40,0.55,ND,19
2019/03/16,14:50,0.56,ND,18
2019/03/16,15:00,0.58,ND,17
2019/03/16,15:10,0.65,ND,14
2019/03/16,15:20,0.65,ND,13
2019/03/16,15:30,0.60,ND,16
2019/03/16,15:40,0.62,ND,16
2019/03/16,15:50,0.64,ND,15
2019/03/16,16:00,0.64,ND,15
2019/03/16,16:10,0.64,ND,17
2019/03/16,16:20,0.65,ND,16
2019/03/16,16:30,0.67,ND,17
2019/03/16,16:40,0.67,ND,16
2019/03/16,16:50,0.67,ND,15
2019/03/16,17:00,0.66,ND,14
2019/03/16,17:10,0.67,ND,13
2019/03/16,17:20,0.67,ND,16
2019/03/16,17:30,0.65,ND,14
2019/03/16,17:40,0.64,ND,14
2019/03/16,17:50,0.65,ND,15
2019/03/16,18:00,0.64,ND,14
2019/03/16,18:10,0.66,ND,15
2019/03/16,18:20,0.65,ND,14
2019/03/16,18:30,0.61,ND,16
2019/03/16,18:40,0.61,ND,17
2019/03/16,18:50,0.58,ND,19
2019/03/16,19:00,0.56,ND,21
2019/03/16,19:10,0.57,ND,21
2019/03/16,19:20,0.54,ND,22
2019/03/16,19:30,0.51,ND,20
2019/03/16,19:40,0.51,ND,17
2019/03/16,19:50,0.51,ND,15
2019/03/16,20:00,0.53,ND,15
2019/03/16,20:10,0.46,ND,17
2019/03/16,20:20,0.47,ND,16
2019/03/16,20:30,0.48,ND,16
2019/03/16,20:40,0.48,ND,16
2019/03/16,20:50,0.48,ND,16
2019/03/16,21:00,0.50,ND,17
2019/03/16,21:10,0.49,ND,17
2019/03/16,21:20,0.49,ND,18
2019/03/16,21:30,0.49,ND,18
2019/03/16,21:40,0.47,ND,18
2019/03/16,21:50,0.47,ND,19
2019/03/16,22:00,0.48,ND,15
2019/03/16,22:10,0.47,ND,13
2019/03/16,22:20,0.47,ND,13
2019/03/16,22:30,0.47,ND,12
2019/03/16,22:40,0.47,ND,15
2019/03/16,22:50,0.45,ND,15
2019/03/16,23:00,0.43,ND,15
2019/03/16,23:10,0.43,ND,16
2019/03/16,23:20,0.42,ND,15
2019/03/16,23:30,0.40,ND,17
2019/03/16,23:40,0.38,ND,15
2019/03/16,23:50,0.35,ND,15
